Location: Hiekkapohja
(62.3333°N, 25.7833°E)
Time: 06:57:11
(UTC+00:00)

ERS-2 - Pass Details

Date: 07 August 2020
Orbit: 494 x 498 km, 98.6° (Epoch: 21 September)

Event Time Altitude Azimuth Distance (km) Brightness Sun altitude
Rises 00:26:21 0° 131° (SE) 2,581 5.6 -7.6°
Reaches altitude 10° 00:28:32 10° 122° (ESE) 1,703 4.8 -7.5°
Maximum altitude 00:31:51 33° 57° (ENE) 855 4.0 -7.3°
Drops below altitude 10° 00:35:11 10° 352° (N) 1,716 5.7 -7.1°
Sets 00:37:24 0° 343° (NNW) 2,604 6.4 -7.0°
